H1 CPF 2 NER 2021 10 10 9 283 01 glonass138 H2 1805301 9138 43508 2021 10 10 0 0 0 2021 10 13 23 45 0 900 1 1 0 0 0 1 H9 10 0 59497 0.00000 0 13773864.334 -10216915.626 -18867994.828 10 0 59497 900.00000 0 12842506.495 -7966767.676 -20537279.770 10 0 59497 1800.00000 0 12027639.518 -5481026.850 -21807263.028 10 0 59497 2700.00000 0 11368987.045 -2815339.344 -22653351.030 10 0 59497 3600.00000 0 10896107.600 -32610.139 -23059202.658 10 0 59497 4500.00000 0 10627149.284 2799371.753 -23017038.456 10 0 59497 5400.00000 0 10568103.747 5610510.511 -22527783.210 10 0 59497 6300.00000 0 10712589.865 8331076.607 -21601039.859 10 0 59497 7200.00000 0 11042175.287 10894365.332 -20254895.865 10 0 59497 8100.00000 0 11527221.453 13239231.234 -18515566.239 10 0 59497 9000.00000 0 12128215.836 15312394.259 -16416880.374 10 0 59497 9900.00000 0 12797534.831 17070422.818 -13999622.756 10 0 59497 10800.00000 0 13481562.733 18481312.627 -11310740.255 10 0 59497 11700.00000 0 14123077.416 19525596.895 -8402431.198 10 0 59497 12600.00000 0 14663802.137 20196942.856 -5331133.767 10 0 59497 13500.00000 0 15047015.947 20502211.069 -2156433.128 10 0 59497 14400.00000 0 15220112.706 20460976.232 1060091.699 10 0 59497 15300.00000 0 15137000.803 20104530.606 4256058.939 10 0 59497 16200.00000 0 14760242.339 19474412.777 7369490.186 10 0 59497 17100.00000 0 14062841.370 18620524.147 10340008.327 10 0 59497 18000.00000 0 13029605.514 17598912.694 13110004.150 10 0 59497 18900.00000 0 11658022.969 16469317.324 15625749.298 10 0 59497 19800.00000 0 9958617.174 15292575.950 17838434.331 10 0 59497 20700.00000 0 7954763.141 14128006.017 19705112.109 10 0 59497 21600.00000 0 5681971.725 13030867.144 21189528.664 10 0 59497 22500.00000 0 3186670.190 12050012.042 22262825.873 10 0 59497 23400.00000 0 524528.318 11225823.935 22904102.599 10 0 59497 24300.00000 0 -2241601.951 10588526.749 23100823.643 10 0 59497 25200.00000 0 -5044049.293 10156938.802 22849068.538 10 0 59497 26100.00000 0 -7812891.422 9937722.369 22153615.084 10 0 59497 27000.00000 0 -10478623.789 9925160.794 21027855.506 10 0 59497 27900.00000 0 -12974818.705 10101472.921 19493546.102 10 0 59497 28800.00000 0 -15240665.007 10437652.084 17580394.352 10 0 59497 29700.00000 0 -17223283.058 10894794.882 15325490.543 10 0 59497 30600.00000 0 -18879718.820 11425864.164 12772593.992 10 0 59497 31500.00000 0 -20178533.700 11977812.142 9971287.018 10 0 59497 32400.00000 0 -21100923.654 12493973.999 6976012.585 10 0 59497 33300.00000 0 -21641320.582 12916630.508 3845014.097 10 0 59497 34200.00000 0 -21807450.757 13189630.645 639198.246 10 0 59497 35100.00000 0 -21619848.062 13260962.271 -2579056.509 10 0 59497 36000.00000 0 -21110842.968 13085160.903 -5747121.827 10 0 59497 36900.00000 0 -20323070.510 12625453.312 -8803346.893 10 0 59497 37800.00000 0 -19307561.085 11855543.929 -11688266.438 10 0 59497 38700.00000 0 -18121495.625 10760967.226 -14345764.861 10 0 59497 39600.00000 0 -16825720.880 9339947.864 -16724172.941 10 0 59497 40500.00000 0 -15482130.547 7603731.372 -18777275.282 10 0 59497 41400.00000 0 -14151023.376 5576370.592 -20465208.715 10 0 59497 42300.00000 0 -12888549.957 3293976.358 -21755234.234 10 0 59497 43200.00000 0 -11744355.726 803463.234 -22622367.947 10 0 59497 44100.00000 0 -10759518.984 -1839157.599 -23049859.400 10 0 59497 45000.00000 0 -9964869.945 -4570867.409 -23029508.771 10 0 59497 45900.00000 0 -9379760.446 -7324024.291 -22561817.569 10 0 59497 46800.00000 0 -9011334.806 -10028944.154 -21655970.712 10 0 59497 47700.00000 0 -8854331.225 -12616571.536 -20329650.919 10 0 59497 48600.00000 0 -8891420.769 -15021129.993 -18608689.502 10 0 59497 49500.00000 0 -9094068.569 -17182642.808 -16526560.550 10 0 59497 50400.00000 0 -9423880.022 -19049220.099 -14123728.443 10 0 59497 51300.00000 0 -9834374.595 -20579018.270 -11446861.289 10 0 59497 52200.00000 0 -10273111.942 -21741791.309 -8547925.335 10 0 59497 53100.00000 0 -10684080.420 -22519970.306 -5483177.821 10 0 59497 54000.00000 0 -11010247.032 -22909227.273 -2312077.570 10 0 59497 54900.00000 0 -11196161.135 -22918500.698 903865.747 10 0 59497 55800.00000 0 -11190501.955 -22569482.701 4102281.403 10 0 59497 56700.00000 0 -10948462.307 -21895590.052 7221143.568 10 0 59497 57600.00000 0 -10433867.752 -20940462.810 10199970.170 10 0 59497 58500.00000 0 -9620941.523 -19756053.964 12980991.539 10 0 59497 59400.00000 0 -8495640.305 -18400390.408 15510266.429 10 0 59497 60300.00000 0 -7056503.886 -16935099.160 17738724.158 10 0 59497 61200.00000 0 -5314981.930 -15422802.352 19623112.959 10 0 59497 62100.00000 0 -3295222.871 -13924489.874 21126836.643 10 0 59497 63000.00000 0 -1033332.149 -12496979.218 22220663.787 10 0 59497 63900.00000 0 1423870.860 -11190568.490 22883295.980 10 0 59497 64800.00000 0 4020547.211 -10046980.331 23101784.359 10 0 59497 65700.00000 0 6693915.307 -9097682.416 22871786.328 10 0 59497 66600.00000 0 9376625.553 -8362654.615 22197657.213 10 0 59497 67500.00000 0 11999335.504 -7849654.296 21092374.597 10 0 59497 68400.00000 0 14493379.664 -7554010.592 19577296.036 10 0 59497 69300.00000 0 16793423.656 -7458956.399 17681753.980 10 0 59497 70200.00000 0 18839992.848 -7536484.330 15442494.797 10 0 59497 71100.00000 0 20581770.229 -7748690.750 12902971.828 10 0 59497 72000.00000 0 21977567.511 -8049551.354 10112505.478 10 0 59497 72900.00000 0 22997886.832 -8387053.200 7125326.127 10 0 59497 73800.00000 0 23626007.327 -8705592.765 3999518.234 10 0 59497 74700.00000 0 23858550.693 -8948537.955 795886.423 10 0 59497 75600.00000 0 23705501.886 -9060844.681 -2423233.936 10 0 59497 76500.00000 0 23189684.161 -8991616.081 -5595197.724 10 0 59497 77400.00000 0 22345710.894 -8696494.654 -8658277.807 10 0 59497 78300.00000 0 21218458.961 -8139784.716 -11552874.602 10 0 59497 79200.00000 0 19861128.781 -7296213.950 -14222682.943 10 0 59497 80100.00000 0 18332973.679 -6152258.431 -16615792.648 10 0 59497 81000.00000 0 16696795.071 -4706974.055 -18685700.833 10 0 59497 81900.00000 0 15016309.650 -2972298.435 -20392216.095 10 0 59497 82800.00000 0 13353499.821 -972809.859 -21702236.989 10 0 59497 83700.00000 0 11766058.881 1255047.179 -22590390.142 10 0 59497 84600.00000 0 10305037.950 3664237.946 -23039516.214 10 0 59497 85500.00000 0 9012792.815 6198861.968 -23040995.043 10 0 59498 0.00000 0 7921315.835 8796254.311 -22594904.552 10 0 59498 900.00000 0 7051021.043 11389377.970 -21710010.779 10 0 59498 1800.00000 0 6410033.330 13909404.723 -20403590.566 10 0 59498 2700.00000 0 5994008.016 16288382.393 -18701089.999 10 0 59498 3600.00000 0 5786488.390 18461874.768 -16635625.991 10 0 59498 4500.00000 0 5759784.185 20371466.466 -14247340.633 10 0 59498 5400.00000 0 5876332.961 21967029.085 -11582620.780 10 0 59498 6300.00000 0 6090486.143 23208655.135 -8693197.859 10 0 59498 7200.00000 0 6350643.748 24068179.875 -5635145.204 10 0 59498 8100.00000 0 6601647.290 24530228.471 -2467792.171 10 0 59498 9000.00000 0 6787329.563 24592745.478 747424.118 10 0 59498 9900.00000 0 6853113.461 24266985.226 3948147.170 10 0 59498 10800.00000 0 6748549.948 23576964.145 7072306.810 10 0 59498 11700.00000 0 6429687.857 22558398.449 10059318.894 10 0 59498 12600.00000 0 5861175.261 21257171.977 12851255.918 10 0 59498 13500.00000 0 5018003.388 19727398.553 15393966.082 10 0 59498 14400.00000 0 3886818.983 18029159.901 17638119.458 10 0 59498 15300.00000 0 2466749.041 16226013.648 19540161.313 10 0 59498 16200.00000 0 769702.118 14382375.263 21063154.552 10 0 59498 17100.00000 0 -1179867.884 12560882.870 22177495.401 10 0 59498 18000.00000 0 -3345727.161 10819854.537 22861488.748 10 0 59498 18900.00000 0 -5681126.524 9210943.640 23101772.228 10 0 59498 19800.00000 0 -8130514.122 7777089.628 22893580.834 10 0 59498 20700.00000 0 -10631626.701 6550849.370 22240846.658 10 0 59498 21600.00000 0 -13117874.006 5553178.399 21156131.379 10 0 59498 22500.00000 0 -15520918.413 4792712.740 19660392.034 10 0 59498 23400.00000 0 -17773343.368 4265581.296 17782583.780 10 0 59498 24300.00000 0 -19811300.097 3955756.508 15559106.363 10 0 59498 25200.00000 0 -21577022.505 3835928.492 13033104.088 10 0 59498 26100.00000 0 -23021105.106 3868865.738 10253632.136 10 0 59498 27000.00000 0 -24104448.385 4009204.752 7274704.863 10 0 59498 27900.00000 0 -24799789.642 4205592.619 4154244.337 10 0 59498 28800.00000 0 -25092754.491 4403091.271 952949.748 10 0 59498 29700.00000 0 -24982384.428 4545740.754 -2266889.826 10 0 59498 30600.00000 0 -24481117.977 4579171.852 -5442615.479 10 0 59498 31500.00000 0 -23614226.171 4453156.072 -8512426.502 10 0 59498 32400.00000 0 -22418726.379 4123983.621 -11416591.475 10 0 59498 33300.00000 0 -20941820.692 3556567.310 -14098617.848 10 0 59498 34200.00000 0 -19238925.309 2726182.122 -16506356.302 10 0 59498 35100.00000 0 -17371374.546 1619765.799 -18593017.909 10 0 59498 36000.00000 0 -15403896.713 236724.608 -20318084.021 10 0 59498 36900.00000 0 -13401968.385 -1410790.396 -21648091.261 10 0 59498 37800.00000 0 -11429158.348 -3298148.868 -22557276.767 10 0 59498 38700.00000 0 -9544572.375 -5389037.808 -23028071.810 10 0 59498 39600.00000 0 -7800505.384 -7636756.364 -23051434.919 10 0 59498 40500.00000 0 -6240398.338 -9985955.101 -22627018.913 10 0 59498 41400.00000 0 -4897184.061 -12374747.568 -21763169.363 10 0 59498 42300.00000 0 -3792089.748 -14737106.506 -20476755.132 10 0 59498 43200.00000 0 -2933944.551 -17005445.391 -18792834.797 10 0 59498 44100.00000 0 -2319019.504 -19113278.364 -16744165.654 10 0 59498 45000.00000 0 -1931404.816 -20997848.286 -14370564.966 10 0 59498 45900.00000 0 -1743907.160 -22602614.094 -11718135.784 10 0 59498 46800.00000 0 -1719427.851 -23879494.402 -8838372.199 10 0 59498 47700.00000 0 -1812762.884 -24790774.335 -5787161.221 10 0 59498 48600.00000 0 -1972748.121 -25310596.598 -2623700.446 10 0 59498 49500.00000 0 -2144658.557 -25425975.048 590647.697 10 0 59498 50400.00000 0 -2272760.007 -25137288.812 3793542.977 10 0 59498 51300.00000 0 -2302905.210 -24458236.743 6922872.768 10 0 59498 52200.00000 0 -2185064.492 -23415254.351 9917952.656 10 0 59498 53100.00000 0 -1875683.972 -22046417.830 12720699.000 10 0 59498 54000.00000 0 -1339771.499 -20399881.026 15276751.026 10 0 59498 54900.00000 0 -552621.924 -18531910.591 17536521.018 10 0 59498 55800.00000 0 498891.559 -16504601.155 19456152.548 10 0 59498 56700.00000 0 1815515.261 -14383365.537 20998368.682 10 0 59498 57600.00000 0 3385336.905 -12234304.113 22133194.112 10 0 59498 58500.00000 0 5184044.681 -10121562.499 22838537.572 10 0 59498 59400.00000 0 7175714.268 -8104786.963 23100623.458 10 0 59498 60300.00000 0 9314092.772 -6236782.904 22914264.332 10 0 59498 61200.00000 0 11544327.709 -4561473.426 22282968.762 10 0 59498 62100.00000 0 13805070.656 -3112242.550 21218881.963 10 0 59498 63000.00000 0 16030869.363 -1910731.701 19742559.652 10 0 59498 63900.00000 0 18154749.676 -966139.487 17882578.629 10 0 59498 64800.00000 0 20110880.414 -275053.721 15674990.705 10 0 59498 65700.00000 0 21837210.280 178177.541 13162629.559 10 0 59498 66600.00000 0 23277966.543 420551.774 10394283.267 10 0 59498 67500.00000 0 24385910.555 489032.630 7423747.984 10 0 59498 68400.00000 0 25124254.972 428744.126 4308780.904 10 0 59498 69300.00000 0 25468161.438 290815.344 1109973.050 10 0 59498 70200.00000 0 25405755.077 129967.718 -2110435.727 10 0 59498 71100.00000 0 24938612.501 1948.172 -5289775.765 10 0 59498 72000.00000 0 24081702.354 -39081.937 -8366175.808 10 0 59498 72900.00000 0 22862780.778 56909.937 -11279775.512 10 0 59498 73800.00000 0 21321267.318 333461.130 -13973897.631 10 0 59498 74700.00000 0 19506648.973 825525.677 -16396156.129 10 0 59498 75600.00000 0 17476479.966 1557753.955 -18499478.123 10 0 59498 76500.00000 0 15294061.808 2543213.665 -20243019.490 10 0 59498 77400.00000 0 13025901.471 3782606.843 -21592956.352 10 0 59498 78300.00000 0 10739054.471 5264016.452 -22523137.476 10 0 59498 79200.00000 0 8498464.014 6963193.647 -23015585.509 10 0 59498 80100.00000 0 6364407.135 8844374.008 -23060838.077 10 0 59498 81000.00000 0 4390153.763 10861588.860 -22658122.979 10 0 59498 81900.00000 0 2619935.279 12960417.189 -21815364.837 10 0 59498 82800.00000 0 1087306.042 15080105.243 -20549023.732 10 0 59498 83700.00000 0 -186035.436 17155965.751 -18883769.474 10 0 59498 84600.00000 0 -1190918.218 19121957.108 -16851998.054 10 0 59498 85500.00000 0 -1930837.287 20913335.311 -14493199.825 10 0 59499 0.00000 0 -2421554.490 22469268.410 -11853191.849 10 0 59499 900.00000 0 -2690180.708 23735305.550 -8983227.649 10 0 59499 1800.00000 0 -2773778.544 24665595.909 -5939005.141 10 0 59499 2700.00000 0 -2717546.425 25224767.970 -2779586.986 10 0 59499 3600.00000 0 -2572660.765 25389388.750 433742.360 10 0 59499 4500.00000 0 -2393868.125 25148943.063 3638662.197 10 0 59499 5400.00000 0 -2236929.381 24506291.881 6773020.653 10 0 59499 6300.00000 0 -2156024.089 23477590.659 9776036.064 10 0 59499 7200.00000 0 -2201224.810 22091671.032 12589471.460 10 0 59499 8100.00000 0 -2416148.192 20388911.568 15158759.614 10 0 59499 9000.00000 0 -2835882.172 18419644.441 17434057.222 10 0 59499 9900.00000 0 -3485277.015 16242164.187 19371208.045 10 0 59499 10800.00000 0 -4377672.780 13920421.023 20932596.833 10 0 59499 11700.00000 0 -5514117.597 11521494.184 22087877.927 10 0 59499 12600.00000 0 -6883110.675 9112949.801 22814564.699 10 0 59499 13500.00000 0 -8460882.244 6760192.488 23098468.709 10 0 59499 14400.00000 0 -10212200.311 4523919.981 22933980.053 10 0 59499 15300.00000 0 -12091672.130 2457786.038 22324183.268 10 0 59499 16200.00000 0 -14045487.688 606368.176 21280806.104 10 0 59499 17100.00000 0 -16013533.932 -996475.751 19824001.440 10 0 59499 18000.00000 0 -17931792.652 -2328794.003 17981965.703 10 0 59499 18900.00000 0 -19734922.761 -3381221.328 15790400.272 10 0 59499 19800.00000 0 -21358919.560 -4157125.210 13291825.291 10 0 59499 20700.00000 0 -22743739.689 -4672212.116 10534758.495 10 0 59499 21600.00000 0 -23835781.520 -4953610.825 7572774.370 10 0 59499 22500.00000 0 -24590116.292 -5038471.941 4463461.652 10 0 59499 23400.00000 0 -24972375.373 -4972143.360 1267299.597 10 0 59499 24300.00000 0 -24960213.373 -4805999.705 -1953524.712 10 0 59499 25200.00000 0 -24544284.614 -4595018.612 -5136334.254 10 0 59499 26100.00000 0 -23728691.043 -4395207.694 -8219190.435 10 0 59499 27000.00000 0 -22530882.226 -4260992.501 -11142106.951 10 0 59499 27900.00000 0 -20981011.325 -4242677.433 -13848224.539 10 0 59499 28800.00000 0 -19120774.166 -4384088.344 -16284922.779 10 0 59499 29700.00000 0 -17001780.435 -4720497.682 -18404846.739 10 0 59499 30600.00000 0 -14683525.652 -5276920.789 -20166828.221 10 0 59499 31500.00000 0 -12231049.391 -6066855.904 -21536683.685 10 0 59499 32400.00000 0 -9712377.966 -7091521.511 -22487873.731 10 0 59499 33300.00000 0 -7195858.549 -8339623.429 -23002011.966 10 0 59499 34200.00000 0 -4747495.816 -9787661.608 -23069214.093 10 0 59499 35100.00000 0 -2428401.581 -11400763.925 -22688281.324 10 0 59499 36000.00000 0 -292462.786 -13134012.188 -21866715.301 10 0 59499 36900.00000 0 1615676.209 -14934204.982 -20620564.923 10 0 59499 37800.00000 0 3262234.506 -16741983.851 -18974108.547 10 0 59499 38700.00000 0 4625452.921 -18494234.234 -16959377.984 10 0 59499 39600.00000 0 5696243.018 -20126661.056 -14615533.682 10 0 59499 40500.00000 0 6478301.731 -21576431.675 -11988103.171 10 0 59499 41400.00000 0 6987688.576 -22784776.035 -9128097.341 10 0 59499 42300.00000 0 7251884.737 -23699435.503 -6091021.605 10 0 59499 43200.00000 0 7308375.005 -24276858.205 -2935800.867 10 0 59499 44100.00000 0 7202813.356 -24484049.116 276361.047 10 0 59499 45000.00000 0 6986850.280 -24299997.491 3483165.423 10 0 59499 45900.00000 0 6715714.101 -23716621.867 6622423.364 10 0 59499 46800.00000 0 6445648.736 -22739192.918 9633257.946 10 0 59499 47700.00000 0 6231316.247 -21386216.230 12457280.577 10 0 59499 48600.00000 0 6123273.929 -19688779.533 15039719.025 10 0 59499 49500.00000 0 6165632.509 -17689391.143 17330475.550 10 0 59499 50400.00000 0 6393994.325 -15440357.534 19285094.954 10 0 59499 51300.00000 0 6833758.643 -13001766.952 20865624.224 10 0 59499 52200.00000 0 7498865.972 -10439162.159 22041347.583 10 0 59499 53100.00000 0 8391034.855 -7820998.358 22789382.993 10 0 59499 54000.00000 0 9499524.252 -5215990.976 23095128.838 10 0 59499 54900.00000 0 10801432.724 -2690462.587 22952552.161 10 0 59499 55800.00000 0 12262523.292 -305798.399 22364312.674 10 0 59499 56700.00000 0 13838540.967 1883884.791 21341719.684 10 0 59499 57600.00000 0 15476969.263 3833759.930 19904522.092 10 0 59499 58500.00000 0 17119153.474 5509917.670 18080534.679 10 0 59499 59400.00000 0 18702702.828 6890533.588 15905106.969 10 0 59499 60300.00000 0 20164071.587 7966526.336 13420443.999 10 0 59499 61200.00000 0 21441211.052 8741679.457 10674791.411 10 0 59499 62100.00000 0 22476181.015 9232222.257 7721500.077 10 0 59499 63000.00000 0 23217610.379 9465887.830 4617988.116 10 0 59499 63900.00000 0 23622902.540 9480488.562 1424620.660 10 0 59499 64800.00000 0 23660091.700 9322070.087 -1796470.479 10 0 59499 65700.00000 0 23309270.754 9042722.701 -4982603.534 10 0 59499 66600.00000 0 22563529.575 8698143.996 -8071775.193 10 0 59499 67500.00000 0 21429363.261 8345057.155 -11003875.747 10 0 59499 68400.00000 0 19926532.519 8038595.501 -13721866.321 10 0 59499 69300.00000 0 18087381.673 7829765.246 -16172894.292 10 0 59499 70200.00000 0 15955642.870 7763094.850 -18309324.628 10 0 59499 71100.00000 0 13584776.666 7874571.241 -20089666.756 10 0 59499 72000.00000 0 11035918.783 8189950.641 -21479378.917 10 0 59499 72900.00000 0 8375519.050 8723515.625 -22451534.752 10 0 59499 73800.00000 0 5672771.173 9477330.920 -22987339.776 10 0 59499 74700.00000 0 2996940.458 10441029.236 -23076488.428 10 0 59499 75600.00000 0 414700.341 11592136.039 -22717355.650 10 0 59499 76500.00000 0 -2012412.190 12896919.518 -21917020.035 10 0 59499 77400.00000 0 -4230317.369 14311730.007 -20691118.795 10 0 59499 78300.00000 0 -6194394.470 15784772.701 -19063537.868 10 0 59499 79200.00000 0 -7871082.922 17258239.506 -17065943.466 10 0 59499 80100.00000 0 -9239017.697 18670710.836 -14737164.287 10 0 59499 81000.00000 0 -10289653.451 19959726.949 -12122436.356 10 0 59499 81900.00000 0 -11027353.152 21064421.357 -9272524.922 10 0 59499 82800.00000 0 -11468939.139 21928106.085 -6242740.353 10 0 59499 83700.00000 0 -11642726.998 22500700.602 -3091866.856 10 0 59499 84600.00000 0 -11587084.142 22740902.618 118975.400 10 0 59499 85500.00000 0 -11348574.736 22618009.691 3327512.750 10 0 59500 0.00000 0 -10979769.936 22113315.177 6471522.024 10 0 59500 900.00000 0 -10536816.030 21221019.371 9490034.539 10 0 59500 1800.00000 0 -10076863.862 19948618.043 12324512.599 10 0 59500 2700.00000 0 -9655467.411 18316750.643 14919981.575 10 0 59500 3600.00000 0 -9324061.743 16358514.419 17226091.687 10 0 59500 4500.00000 0 -9127626.438 14118272.090 19198090.906 10 0 59500 5400.00000 0 -9102633.001 11650001.910 20797690.300 10 0 59500 6300.00000 0 -9275362.800 9015257.738 21993805.506 10 0 59500 7200.00000 0 -9660666.644 6280822.995 22763160.250 10 0 59500 8100.00000 0 -10261218.691 3516154.829 23090740.545 10 0 59500 9000.00000 0 -11067296.858 790723.511 22970090.775 10 0 59500 9900.00000 0 -12057099.982 -1828643.402 22403445.766 10 0 59500 10800.00000 0 -13197589.645 -4280302.848 21401695.852 10 0 59500 11700.00000 0 -14445822.630 -6510119.193 19984184.935 10 0 59500 12600.00000 0 -15750719.327 -8473472.247 18178344.630 10 0 59500 13500.00000 0 -17055194.932 -10136867.317 16019170.611 10 0 59500 14400.00000 0 -18298564.763 -11479080.499 13548550.378 10 0 59500 15300.00000 0 -19419122.971 -12491791.635 10814454.672 10 0 59500 16200.00000 0 -20356786.230 -13179678.764 7870007.638 10 0 59500 17100.00000 0 -21055690.698 -13559970.535 4772453.460 10 0 59500 18000.00000 0 -21466632.034 -13661475.892 1582039.680 10 0 59500 18900.00000 0 -21549244.589 -13523132.651 -1639160.688 10 0 59500 19800.00000 0 -21273826.632 -13192137.147 -4828464.657 10 0 59500 20700.00000 0 -20622733.375 -12721735.028 -7923807.660 10 0 59500 21600.00000 0 -19591277.949 -12168767.826 -10864959.923 10 0 59500 22500.00000 0 -18188101.323 -11591080.377 -13594706.104 10 0 59500 23400.00000 0 -16434994.961 -11044899.930 -16059964.265 10 0 59500 24300.00000 0 -14366183.143 -10582298.873 -18212821.787 10 0 59500 25200.00000 0 -12027094.862 -10248849.137 -20011467.769 10 0 59500 26100.00000 0 -9472676.719 -10081567.882 -21421003.722 10 0 59500 27000.00000 0 -6765317.378 -10107241.388 -22414117.181 10 0 59500 27900.00000 0 -3972470.186 -10341197.784 -22971605.756 10 0 59500 28800.00000 0 -1164073.005 -10786580.035 -23082742.147 10 0 59500 29700.00000 0 1590127.716 -11434149.406 -22745473.939 10 0 59500 30600.00000 0 4223237.926 -12262627.218 -21966455.056 10 0 59500 31500.00000 0 6673752.209 -13239560.135 -20760908.949 10 0 59500 32400.00000 0 8887861.006 -14322672.334 -19152326.705 10 0 59500 33300.00000 0 10821434.285 -15461647.575 -17172006.203 10 0 59500 34200.00000 0 12441600.558 -16600266.298 -14858441.433 10 0 59500 35100.00000 0 13727857.201 -17678808.026 -12256573.759 10 0 59500 36000.00000 0 14672667.403 -18636618.336 -9416919.507 10 0 59500 36900.00000 0 15281520.433 -19414732.673 -6394590.628 10 0 59500 37800.00000 0 15572454.275 -19958446.896 -3248227.252 10 0 59500 38700.00000 0 15575061.996 -20219726.595 -38862.568 10 0 59500 39600.00000 0 15329024.723 -20159353.888 3171257.977 10 0 59500 40500.00000 0 14882233.811 -19748721.329 6319880.429 10 0 59500 41400.00000 0 14288581.904 -18971197.262 9345945.834 10 0 59500 42300.00000 0 13605516.288 -17823004.857 12190770.207 10 0 59500 43200.00000 0 12891457.803 -16313577.303 14799178.344 10 0 59500 44100.00000 0 12203194.048 -14465373.456 17120569.801 10 0 59500 45000.00000 0 11593356.571 -12313160.687 19109896.654 10 0 59500 45900.00000 0 11108088.078 -9902793.724 20728534.556 10 0 59500 46800.00000 0 10784997.714 -7289539.138 21945030.646 10 0 59500 47700.00000 0 10651490.364 -4536013.949 22735714.146 10 0 59500 48600.00000 0 10723540.356 -1709822.704 23085158.086 10 0 59500 49500.00000 0 11004961.440 1119010.168 22986483.301 10 0 59500 50400.00000 0 11487204.301 3880707.248 22441498.599 10 0 59500 51300.00000 0 12149690.876 6508394.706 21460674.020 10 0 59500 52200.00000 0 12960672.411 8940639.161 20062946.999 10 0 59500 53100.00000 0 13878576.145 11123760.018 18275364.379 10 0 59500 54000.00000 0 14853784.990 13013821.643 16132566.284 10 0 59500 54900.00000 0 15830776.085 14578222.711 13676120.861 10 0 59500 55800.00000 0 16750528.661 15796816.524 10953722.013 10 0 59500 56700.00000 0 17553099.905 16662515.706 8018265.097 10 0 59500 57600.00000 0 18180259.931 17181356.105 4926818.156 10 0 59500 58500.00000 0 18578073.991 17372017.586 1739508.816 10 0 59500 59400.00000 0 18699321.949 17264822.368 -1481651.127 10 0 59500 60300.00000 0 18505651.609 16900253.895 -4673979.923 10 0 59500 61200.00000 0 17969373.636 16327059.612 -7775354.183 10 0 59500 62100.00000 0 17074820.993 15600018.922 -10725426.403 10 0 59500 63000.00000 0 15819214.300 14777471.786 -13466806.958 10 0 59500 63900.00000 0 14212995.697 13918713.595 -15946186.570 10 0 59500 64800.00000 0 12279616.351 13081367.453 -18115376.791 10 0 59500 65700.00000 0 10054785.992 12318845.660 -19932247.932 10 0 59500 66600.00000 0 7585215.642 11678008.096 -21361546.101 10 0 59500 67500.00000 0 4926905.940 11197116.443 -22375573.857 10 0 59500 68400.00000 0 2143052.372 10904170.320 -22954721.808 10 0 59500 69300.00000 0 -698345.369 10815694.962 -23087841.579 10 0 59500 70200.00000 0 -3527070.706 10936030.806 -22772453.758 10 0 59500 71100.00000 0 -6273367.098 11257154.099 -22014787.591 10 0 59500 72000.00000 0 -8870593.918 11759035.290 -20829652.346 10 0 59500 72900.00000 0 -11257751.951 12410519.421 -19240143.383 10 0 59500 73800.00000 0 -13381774.693 13170690.945 -17277188.942 10 0 59500 74700.00000 0 -15199491.440 13990665.170 -14978946.578 10 0 59500 75600.00000 0 -16679181.924 14815730.753 -12390060.945 10 0 59500 76500.00000 0 -17801659.226 15587753.022 -9560797.110 10 0 59500 77400.00000 0 -18560837.199 16247736.971 -6546066.106 10 0 59500 78300.00000 0 -18963760.138 16738442.094 -3404361.340 10 0 59500 79200.00000 0 -19030094.788 17006938.965 -196626.315 10 0 59500 80100.00000 0 -18791107.080 17006999.909 3014924.489 10 0 59500 81000.00000 0 -18288167.540 16701222.958 6168008.807 10 0 59500 81900.00000 0 -17570848.866 16062799.426 9201480.712 10 0 59500 82800.00000 0 -16694696.136 15076850.320 12056512.331 10 0 59500 83700.00000 0 -15718763.721 13741274.815 14677730.482 10 0 59500 84600.00000 0 -14703022.512 12067074.266 17014286.521 10 0 59500 85500.00000 0 -13705746.406 10078137.217 19020838.901 99